Regional Weather Roundup
Issued by NWS Jackson, KY

Home | Current Version | Previous Version | Text Only | Print | Product List | Glossary On
Versions: 1 2 3 4 5 6 7 8 9 10 11 12 13 14 15 16 17 18 19 20 21 22 23 24 25 26 27 28 29 30 31 32 33 34 35 36 37 38 39 40 41 42 43 44 45 46 47 48 49 50
000
ASUS43 KJKL 100619
RWRJKL

EAST KENTUCKY HOURLY WEATHER ROUNDUP
NATIONAL WEATHER SERVICE JACKSON KY
200 AM EDT THU JUL 10 2014

NOTE: "FAIR" INDICATES FEW OR NO CLOUDS BELOW 12,000 FEET WITH
NO SIGNIFICANT WEATHER AND/OR OBSTRUCTIONS TO VISIBILITY.

* THESE REPORTS ARE NOT UNDER NWS QUALITY CONTROL AND MAY NOT
  REPORT WEATHER SUCH AS PRECIPITATION AND FOG.

KYZ079-080-083-085-087-088-110-112-115-119-120-100700
...EASTERN KENTUCKY...

CITY           SKY/WX    TMP DP  RH WIND       PRES   REMARKS
JACKSON        CLEAR     70  61  73 CALM      30.06S
6HR MIN TEMP:  68; 6HR MAX TEMP:  80;

LONDON         CLEAR     66  62  87 CALM      30.06F
6HR MIN TEMP:  66; 6HR MAX TEMP:  82;

SOMERSET*      CLEAR     63  63 100 CALM      30.06S
MONTICELLO*    CLEAR     62  62 100 CALM      30.07S FOG
6HR MIN TEMP:  62; 6HR MAX TEMP:  82;

WILLIAMSBURG*    N/A     66  66 100 CALM      30.06F
MIDDLESBORO*   CLOUDY    67  66  96 CALM      30.07F
6HR MIN TEMP:  67; 6HR MAX TEMP:  79;

HARLAN APT*    CLOUDY    64  64 100 MISG      30.08F VSB<1/4
HAZARD APT*    CLEAR     64  64 100 CALM      30.06S
BLACK MTN*       N/A     61  59  94 W1          N/A
PIKEVILLE APT* CLEAR     68  66  94 S3        30.06F
BIG SANDY*     CLEAR     68  66  95 CALM      30.05S
6HR MIN TEMP:  67; 6HR MAX TEMP:  80;

MOREHEAD APT*    N/A     66  59  77 S5        30.06F
ASHLAND*       CLEAR     64  61  88 CALM      30.01S
$$

KYZ035-036-041-042-044-050-067-078-099-100700
...CENTRAL KENTUCKY...

CITY           SKY/WX    TMP DP  RH WIND       PRES   REMARKS
MT STERLING*   CLEAR     61  61 100 CALM      30.06S
FLEMING/MASON* CLEAR     64  59  82 SW3       30.05S
DANVILLE*      CLEAR     63  59  88 CALM      30.06S
RICHMOND*      CLEAR     63  59  88 SE3       30.05S
LEXINGTON      CLEAR     64  59  83 CALM      30.05S
6HR MIN TEMP:  64; 6HR MAX TEMP:  82;

FRANKFORT      CLEAR     65  61  87 CALM      30.03
6HR MIN TEMP:  65; 6HR MAX TEMP:  81;

$$

KYZ091>093-OHZ055-061-077-WVZ005-015-034-035-042-100700
...SOUTHERN OHIO/WEST VIRGINIA...

CITY           SKY/WX    TMP DP  RH WIND       PRES   REMARKS
COVINGTON      PTCLDY    69  58  67 N3        30.04S
COLUMBUS       PTCLDY    68  60  75 CALM      30.02S
DAYTON         CLEAR     64  59  83 CALM      30.05S
WILMINGTON     CLOUDY    67  59  75 N5        30.04R
HUNTINGTON     PTCLDY    63  61  93 CALM      30.02S
CHARLESTON     MOCLDY    69  68  96 CALM      30.03S
PINEVILLE*     MOCLDY    65  65 100 MISG      30.13S FOG
BECKLEY        CLEAR     63  61  93 S3        30.11S
BLUEFIELD      PTCLDY    67  63  87 W6        30.13F
$$

VAZ002-007-008-TNZ017-027-036-066-071-100700
...SOUTHWEST VIRGINIA/EAST TENNESSEE...

CITY           SKY/WX    TMP DP  RH WIND       PRES   REMARKS
WISE*          PTCLDY    64  64 100 SW3       30.14S FOG
JONESVILLE*      N/A     66  66 100 CALM      30.09F
ABINGDON*      CLOUDY    70  68  94 CALM      30.11S
BRISTOL        MOCLDY    70  63  78 W6        30.08F
KNOXVILLE      MOCLDY    69  68  96 CALM      30.05F
OAK RIDGE      PTCLDY    69  67  93 CALM      30.06F
CROSSVILLE     CLOUDY    71  66  84 CALM      30.09F HAZE
NASHVILLE      PTCLDY    74  66  76 CALM      30.03S
$$

...KEY TO REMARKS...
VSB - VISIBILITY IN MILES
WCI - WIND CHILL INDEX
HX  - HEAT INDEX

$$


USA.gov is the U.S. government's official web portal to all federal, state and local government web resources and services.